Regional Weather Roundup
Issued by NWS Grand Forks, ND

Home | Current Version | Previous Version | Graphics & Text | Print | Product List | Glossary On
Versions: 1 2 3 4 5 6 7 8 9 10 11 12 13 14 15 16 17 18 19 20 21 22 23 24 25 26 27 28 29 30 31 32 33 34 35 36 37 38 39 40 41 42 43 44 45 46 47 48 49 50
000
ASUS43 KFGF 272310
RWRFGF
PRAIRIE TO PINES  WEATHER ROUNDUP
NATIONAL WEATHER SERVICE EASTERN NORTH DAKOTA/GRAND FORKS ND
600 PM CDT WED JUL 27 2016

 **SATELLITE DATA USED TO AUGMENT SKY COVER AT AUTOMATED STATIONS**
 *****  WEATHER ACROSS EASTERN NORTH DAKOTA  *****

CITY           SKY/WX    TMP DP  RH WIND       PRES   REMARKS
GRAND FORKS    MOSUNNY   77  59  53 N14       30.03F
GRAND FRKS AFB SUNNY     76  57  52 N16       30.05F
GRAND FRKS NWS   N/A     75 N/A N/A VRB10       N/A
DEVILS LAKE    CLOUDY    71  56  58 N13       30.11F
FARGO          SUNNY     78  58  49 N12       30.01F
WAHPETON ARPT  CLEAR     77  55  47 N12G17    30.01F
$$

 ***** WEATHER ACROSS CENTRAL AND WESTERN NORTH DAKOTA  *****

CITY           SKY/WX    TMP DP  RH WIND       PRES   REMARKS
BISMARCK       CLOUDY    76  60  57 E8        30.08F
MINOT          CLOUDY    76  57  51 NE8       30.11F
JAMESTOWN      CLOUDY    74  58  57 N7        30.07F
MINOT AFB      CLOUDY    73  57  56 NE8       30.11F
GARRISON         N/A     73  60  63 E9        30.10F
WILLISTON      LGT RAIN  65  60  84 NE9       30.15S
DICKINSON      CLOUDY    73  58  59 NE3       30.11R
HETTINGER      CLOUDY    73  63  70 N9        30.14S
$$

 *****  OTHER AIRPORT OBSERVATIONS IN OUR AREA  *****

CITY           SKY/WX    TMP DP  RH WIND       PRES   REMARKS
WALHALLA       NOT AVBL
GRAFTON AIRPOR FAIR      75  57  53 N15       30.08S
VALLEY CITY AR FAIR      73  57  56 N16       30.08S
CANDO          NOT AVBL
CAVALIER APRT  FAIR      73  55  53 N13G18    30.08F
GWINNER        FAIR      79  55  44 N16G22    30.04F
SHEYENNE NWR     N/A     77  53  43 N13       29.95S
ROLLA          FAIR      70  54  56 N9        30.15F
 ***** THE ABOVE OBSERVATIONS ARE NON NWS ARE NOT QUALITY
       CONTROLLED AND MAY MIS-REPORT RAIN FOR SNOW...
$$

  *****  WEATHER ACROSS NORTHERN MINNESOTA  *****

CITY           SKY/WX    TMP DP  RH WIND       PRES   REMARKS
FLAG ISLAND    SUNNY     72  55  56 NE13      30.07S
WARROAD        SUNNY     75  63  64 NE13      30.07S
ROSEAU         MOSUNNY   75  63  64 E8        30.06R
HALLOCK        SUNNY     75  59  57 N14G22    30.05F
THF RVR FALLS  CLOUDY    75  60  59 NE12      30.04S
BAUDETTE       SUNNY     77  56  48 N12       30.04F
WASKISH        CLOUDY    75  63  64 S5        30.03F
CROOKSTON      SUNNY     77  61  57 N17G24    30.03S
STEPHEN NDAWN    N/A     75  61  60 N12         N/A
GREENBUSH NDAW   N/A     79  61  53 N9          N/A
$$
  *****  WEATHER ACROSS CENTRAL AND WEST MINNESOTA  *****

CITY           SKY/WX    TMP DP  RH WIND       PRES   REMARKS
FOSSTON        PTSUNNY   75  64  69 CALM      30.03S
BEMIDJI        CLOUDY    72  61  68 E8        30.04S
PARK RAPIDS    CLOUDY    73  62  68 NE7       30.02S
ELBOW LAKE     FAIR      76  60  57 W13       30.00F
WADENA         NOT AVBL
DETROIT LAKES  SUNNY     75  55  50 N5        30.03S
MOORHEAD       SUNNY     75  59  57 N12       30.02F
FERGUS FALLS   SUNNY     75  57  53 N8G17     30.01F
MORRIS MN      SUNNY     81  61  50 N14       29.98F
STAPLES        SUNNY     75  63  64 N6        30.00F
$$
  *****  WEATHER ELSEWHERE ACROSS MINNESOTA  *****

CITY           SKY/WX    TMP DP  RH WIND       PRES   REMARKS
DULUTH         CLOUDY    63  58  83 NE9       30.04S
INTRNTL FALLS  SUNNY     75  55  49 NE9       30.03F
ELY            PTSUNNY   70  63  78 S5        30.03F
CLOQUET        CLOUDY    63  55  77 E8        30.03S
WHEATON        NOT AVBL
BRAINERD       CLOUDY    69  64  84 NE12      30.02S
HIBBING        CLOUDY    70  62  76 E6        30.03S
ALEXANDRIA     SUNNY     78  61  55 NE9       30.01F
SAINT CLOUD    CLOUDY    74  65  73 N10       29.97R
MINNEAPOLIS    PTSUNNY   76  67  73 NW5       29.94S
$$

  *****  WEATHER ACROSS SOUTH DAKOTA  *****

CITY           SKY/WX    TMP DP  RH WIND       PRES   REMARKS
SIOUX FALLS    MOSUNNY   81  64  56 N12       29.98F
BROOKINGS      SUNNY     78  64  61 N13       30.01S
WATERTOWN      SUNNY     79  58  48 N17G23    30.03S
HURON          MOSUNNY   83  62  49 N15       30.00R
SISSETON         N/A     79  58  48 NE10      30.01F
ABERDEEN       SUNNY     79  59  50 N9        30.04R
MITCHELL       CLOUDY    83  64  52 NE10      30.00R
PIERRE         CLOUDY    85  59  41 NE9       30.02S
MOBRIDGE       CLOUDY    80  59  48 E6        30.06S
RAPID CITY     SUNNY     79  61  53 NE12      30.11F
$$

  *****  SOME WEATHER IN NEARBY STATES *****

CITY           SKY/WX    TMP DP  RH WIND       PRES   REMARKS
GLASGOW MT     PTSUNNY   74  59  59 S7        30.11F
GREAT FALLS MT MOSUNNY   81  46  29 NE8       30.15S
CHEYENNE WY    CLOUDY    78  54  43 E10       30.22S
SCOTTSBLUFF NE SUNNY     89  53  29 E9        30.08F
OMAHA NE       MOSUNNY   86  69  56 N6        29.93F HX  90
DES MOINES IA  CLOUDY    86  68  54 VRB3      29.91F
DAVENPORT IA   MOSUNNY   84  69  60 VRB3      29.92F
CHICAGO IL     PTSUNNY   85  63  47 E12       29.92F
EAU CLAIRE WI  TSTM      69  67  93 VRB5G20   29.93R FOG
LA CROSSE WI   CLOUDY    83  67  58 SW9       29.90F
$$

  *****  SOME NATIONAL WEATHER *****

CITY           SKY/WX    TMP DP  RH WIND       PRES   REMARKS
LA GUARDIA NY  MOSUNNY   91  65  41 VRB7      29.87S HX  93
RALEIGH NC     PTSUNNY   88  77  69 NW5       29.94R HX 100
ATLANTA GA     MOSUNNY   90  68  48 SW10      30.02S HX  94
NEW ORLEANS LA PTSUNNY   87  73  62 SW7       30.01F HX  94
OKLAHOMA CITY  PTSUNNY   93  71  48 CALM      29.90F THUNDER HX 100
ALBUQUERQUE NM CLOUDY    92  52  25 SE13G23   30.11F
SALT LAKE CITY MOSUNNY  101  30   8 N12G17    30.06F HX  94
LOS ANGELES CA MOSUNNY   77  66  68 W12       29.90F
BOISE ID       SUNNY    100  42  13 NW12G18   29.95F HX  95
SEATTLE WA     MOSUNNY   83  59  44 N13G21    30.11F
$$

*** WEATHER ACROSS MANITOBA...SASKATCHEWAN AND ONTARIO ***
                ***ONTARIO***

CITY           SKY/WX    TMP DP  RH WIND       PRES   REMARKS
GERALDTON      PTSUNNY   70  48  46 N10G17    30.01S
THUNDER BAY    PTSUNNY   72  59  64 S2        30.01F
SIOUX LOOKOUT  MOSUNNY   68  52  56 N6        30.09S
TORONTO        PTSUNNY   88  64  45 NW16G22   29.87S
BIG TROUT LK   NOT AVBL
PICKLE LAKE    MOSUNNY   68  46  45 N6G17     30.08F
DRYDEN         MOSUNNY   70  52  52 N9        30.10R
KENORA         PTSUNNY   68  54  60 N9        30.10F
$$
                *** MANITOBA***

CITY           SKY/WX    TMP DP  RH WIND       PRES   REMARKS
BRANDON        PTSUNNY   70  52  52 E7        30.16S
DAUPHIN        SUNNY     73  52  46 NE7       30.15F
ISLAND LAKE    MOSUNNY   70  48  46 W3        30.13S
PILOT MOUND      N/A     70  52  52 NE13        N/A
THE PAS        MOSUNNY   77  55  47 S14       30.10F
THOMPSON       PTSUNNY   75  46  35 S5        30.08F
WINNIPEG       PTSUNNY   70  54  56 N12       30.12F
LYNN LAKE      MOSUNNY   75  55  50 MISG      30.03F
CHURCHILL      PTSUNNY   66  52  59 E9        30.05F
GILLAM         PTSUNNY   70  46  43 VRB3      30.10F
$$
                ***SASKATCHEWAN***

CITY           SKY/WX    TMP DP  RH WIND       PRES   REMARKS
ESTEVAN        PTSUNNY   72  59  64 E6        30.14F
KINDERSLEY     MOSUNNY   77  59  53 S7        30.15F
LLOYDMINSTER   MOSUNNY   81  57  44 NW6       30.12S
PRINCE ALBERT  PTSUNNY   81  55  41 SW9G18    30.11F
REGINA         PTSUNNY   73  55  53 E6        30.15F
YORKTON        SUNNY     73  48  40 NE5       30.16F
N. BATTLEFORD  SUNNY     81  54  39 SW7       30.13F
LA RONGE       PTSUNNY   81  59  47 SW7       30.03F
SASKATOON      MOSUNNY   79  52  38 CALM      30.16F
SWIFT CURRENT  SUNNY     72  48  43 NE8       30.17S
$$
NOTE: THESE ARE AUTOMATED STATIONS WITH LIMITED QUALITY CONTROL
      "FAIR" INDICATES FEW OR NO CLOUDS BELOW 12,000 FEET WITH NO
      SIGNIFICANT WEATHER AND/OR OBSTRUCTIONS TO VISIBILITY.
      SKY/WX - SKY CONDITION AND SIGNIFICANT WEATHER.
      TMP - AIR TEMPERATURE.    DP   - DEWPOINT TEMPERATURE.
      RH  - RELATIVE HUMIDITY.  PRES - PRESSURE.
      HX  - HEAT INDEX.         WCI  - WIND CHILL INDEX.
$




USA.gov is the U.S. government's official web portal to all federal, state and local government web resources and services.